Location: Cardiff
(53.7833°N, 113.6000°W)
Time: 22:48:05
(UTC+00:00)

Oscar 19 - Pass Details

Date: 08 December 2023
Orbit: 771 x 789 km, 98.9° (Epoch: 04 March)

Event Time Altitude Azimuth Distance (km) Brightness Sun altitude
Rises 12:01:09 0° 19° (NNE) 3,276 14.1 -30.6°
Reaches altitude 10° 12:03:34 10° 25° (NNE) 2,346 13.4 -30.3°
Maximum altitude 12:08:34 47° 100° (E) 1,029 11.5 -29.5°
Drops below altitude 10° 12:13:32 10° 174° (S) 2,341 13.1 -28.8°
Sets 12:15:56 0° 180° (S) 3,267 13.9 -28.4°
